ONEWEB-0690, 61598

Orbit data source: Space-Track

ONEWEB-0690, 61598 is a payload satellite owned by Eut. One Web (UK) in LEO that was launched on Sun, 20 Oct 2024 UTC via an FALCON 9 launch vehicle from the Air Force Western Test Range (AFWTR). Payload-class satellites include a variety of spacecraft equipped with specific instruments for various scientific and technological missions. These include communications satellites like Starlink; space stations such as the ISS; scientific satellites like the Hubble; Earth observation satellites from companies like Planet Labs, Umbra, and HawkEye 360; GPS; miniature CubeSats for education and research; and military/defense satellites.

Loading next visibility...
Identifier
61598, 2024-188E
Orbit
LEO
Country
Flag of UKUK
Related business
Manufacturer
One Web
Mission
Operational spacecraft
Bus & Motor
ARROW, Unknown motor
Mass
148 kg wet, ~140 kg dry
Launch date (UTC)
2024-10-20 (1 year ago)
Launch vehicle
FALCON 9
Launch site
Air Force Western Test Range (AFWTR)
Object type
Payload
Rocket body
Debris
Shape & HBR
Unknown shape, 6.7 m
Radar Cross Section
Large (>1 m²)

Expand to show TLE details & history
Last TLE update: 15 hours ago

TLE from 15 hours ago
0 ONEWEB-0690
1 61598U 24188E   25294.39205249 -.00000332  00000-0 -97370-3 0  9997
2 61598  87.8842  68.5968 0001487 125.9405 234.1861 13.11413998 53335
Epoch: 2025-10-21T09:24Z
TLE epoch observation values (Epoch: 2025-10-21T09:24:33.335Z)
Latitude
-0.00001°
Longitude
-102.62277°
Altitude
1,221.244 km
Speed
7.243 km/s
True Right ascension
04h 34m 23s
True Declination
0° 00' 00"
Sunlit
Object was in full shadow at epoch
Visualization orbit readout
Latitude
Unknown
Longitude
Unknown
Altitude
Unknown
Speed
Unknown
Apparent Right ascension
Unknown
Apparent Declination
Unknown
Sunlit
N/A
Visualization observer readout
Local Sidereal Time
19:01:11
Azimuth
Unknown
Elevation
Unknown
Doppler factor
Unknown
Orbital elements
Apogee altitude
1,215.941 km
Perigee altitude
1,213.683 km
Semi-major axis
7,592.949 km
Eccentricity
0.00015
Inclination
87.8842°
RAAN
68.5968°
Arg. of periapsis
125.9405°
True anomaly
234.17228°
Mean anomaly
234.1861°
Eccentric anomaly
234.17919°
Mean motion
3.2804 °/min
Orbital period
109.74 mins
BSTAR
-0.0009737
Loading maneuver chart data...
Computing Atmospheric mass density...
Loading historical data...
Loading historical data...
Loading historical data...
Loading historical data...
Loading historical data...
Loading historical data...
Loading historical data...

Documentation

Showing up to 5 results
|